EW6774 Weather Reports


Display with metric or nautical units.
time (UTC)temp
F
wind
direction
speed
MPH
gust
MPH
rain 1hr
in
rain 24hr
in
rain mn
in
humidity
%
barometer
mb
20260503184903 76 126 0.0 1.0 0.00 0.00 0.00 55 1012.7
20260503184403 76 82 0.0 0.0 0.00 0.00 0.00 56 1012.7
20260503183904 76 272 0.0 2.0 0.00 0.00 0.00 56 1012.8
20260503183403 75 226 1.0 2.0 0.00 0.00 0.00 55 1012.9
20260503182403 75 262 1.0 1.0 0.00 0.00 0.00 58 1013.0
20260503181903 74 298 1.0 2.0 0.00 0.00 0.00 58 1013.0
20260503181404 74 120 0.0 3.0 0.00 0.00 0.00 56 1013.1
20260503180903 74 270 1.0 3.0 0.00 0.00 0.00 59 1013.1
20260503180403 74 132 0.0 2.0 0.00 0.00 0.00 56 1013.2
20260503175904 73 288 1.0 2.0 0.00 0.00 0.00 58 1013.2
20260503175404 73 263 0.0 2.0 0.00 0.00 0.00 55 1013.3
20260503174903 73 189 0.0 2.0 0.00 0.00 0.00 56 1013.3
20260503173903 73 334 0.0 0.0 0.00 0.00 0.00 57 1013.4
20260503173404 72 193 0.0 0.0 0.00 0.00 0.00 61 1013.4
20260503171904 71 101 0.0 0.0 0.00 0.00 0.00 60 1013.6
20260503171403 70 115 0.0 0.0 0.00 0.00 0.00 62 1013.6
20260503170403 69 83 0.0 1.0 0.00 0.00 0.00 64 1013.7
20260503150903 51 34 0.0 0.0 0.00 0.00 0.00 3 1014.3
20260503150404 50 34 0.0 0.0 0.00 0.00 0.00 3 1014.3
20260503131404 46 34 0.0 0.0 0.00 0.00 0.00 3 1014.1
20260503130904 46 34 0.0 0.0 0.00 0.00 0.00 3 1014.0
20260503130404 46 34 0.0 0.0 0.00 0.00 0.00 3 1014.0
20260503110403 48 34 0.0 0.0 0.00 0.00 0.00 3 1014.2
20260503090403 50 34 0.0 0.0 0.00 0.00 0.00 3 1014.3
20260503081402 51 34 0.0 0.0 0.00 0.00 0.00 14 1014.3
20260503080403 52 34 0.0 0.0 0.00 0.00 0.00 15 1014.3
20260503072903 52 34 0.0 0.0 0.00 0.00 0.00 27 1014.2
20260503072403 52 34 0.0 0.0 0.00 0.00 0.00 30 1014.1
20260503071903 52 34 0.0 0.0 0.00 0.00 0.00 33 1014.0
20260503071403 52 34 0.0 0.0 0.00 0.00 0.00 32 1014.0
20260503070902 53 34 0.0 0.0 0.00 0.00 0.00 35 1014.0
20260503070403 53 34 0.0 0.0 0.00 0.00 0.00 37 1014.1
20260503054903 55 34 0.0 0.0 0.00 0.00 0.00 62 1013.9
20260503054403 55 34 0.0 0.0 0.00 0.00 0.00 64 1013.9
20260503053903 55 34 0.0 0.0 0.00 0.00 0.00 66 1013.9
20260503053403 55 34 0.0 0.0 0.00 0.00 0.00 68 1013.9
20260503052905 56 34 0.0 0.0 0.00 0.00 0.00 69 1013.9
20260503052403 56 34 0.0 0.0 0.00 0.00 0.00 70 1013.9
20260503051902 56 34 0.0 0.0 0.00 0.00 0.00 70 1013.9
20260503050903 56 34 0.0 0.0 0.00 0.00 0.00 72 1013.8
20260503050402 57 34 0.0 0.0 0.00 0.00 0.00 72 1013.7
20260503045904 57 34 0.0 0.0 0.00 0.00 0.00 72 1013.7
20260503045403 57 34 0.0 0.0 0.00 0.00 0.00 72 1013.7
20260503044902 58 34 0.0 0.0 0.00 0.00 0.00 73 1013.7
20260503044403 58 34 0.0 0.0 0.00 0.00 0.00 73 1013.6
20260503043403 59 34 0.0 0.0 0.00 0.00 0.00 73 1013.5
20260503042903 59 34 0.0 0.0 0.00 0.00 0.00 73 1013.3
20260503042402 60 34 0.0 0.0 0.00 0.00 0.00 73 1013.3
20260503041902 60 34 0.0 0.0 0.00 0.00 0.00 73 1013.2
20260503041403 60 34 0.0 0.0 0.00 0.00 0.00 73 1013.2
20260503040903 61 34 0.0 0.0 0.00 0.00 0.00 72 1013.1
20260503035903 62 34 0.0 0.0 0.00 0.00 0.00 71 1013.0
20260503035404 62 34 0.0 0.0 0.00 0.00 0.00 71 1012.9
20260503034905 62 34 0.0 0.0 0.00 0.00 0.00 69 1012.9
20260503034404 63 34 0.0 0.0 0.00 0.00 0.00 68 1012.8
20260503033403 64 34 0.0 0.0 0.00 0.00 0.00 66 1012.5
20260503032902 65 34 0.0 0.0 0.00 0.00 0.00 64 1012.5
20260503032403 65 34 0.0 0.0 0.00 0.00 0.00 63 1012.4
20260503031903 66 34 0.0 0.0 0.00 0.00 0.00 59 1012.4
20260503031403 66 34 0.0 0.0 0.00 0.00 0.00 58 1012.3
20260503030903 67 34 0.0 0.0 0.00 0.00 0.00 57 1012.3
20260503030403 67 34 0.0 0.0 0.00 0.00 0.00 56 1012.2
20260503025903 67 34 0.0 0.0 0.00 0.00 0.00 56 1012.2
20260503025402 68 34 0.0 1.0 0.00 0.00 0.00 55 1012.2
20260503024904 68 34 0.0 1.0 0.00 0.00 0.00 54 1012.1
20260503024403 68 34 0.0 0.0 0.00 0.00 0.00 54 1012.2
20260503023403 69 63 0.0 0.0 0.00 0.00 0.00 52 1012.2
20260503022903 69 65 0.0 1.0 0.00 0.00 0.00 51 1012.1
20260503021903 70 39 0.0 0.0 0.00 0.00 0.00 50 1012.2
20260503021403 71 39 0.0 0.0 0.00 0.00 0.00 49 1012.1
20260503020902 71 39 0.0 0.0 0.00 0.00 0.00 49 1012.1
20260503020403 71 39 0.0 1.0 0.00 0.00 0.00 49 1012.1
20260503015904 71 41 0.0 2.0 0.00 0.00 0.00 48 1012.2
20260503015404 71 0 1.0 2.0 0.00 0.00 0.00 46 1012.2
20260503014903 72 338 0.0 1.0 0.00 0.00 0.00 47 1012.2
20260503014403 72 77 0.0 2.0 0.00 0.00 0.00 48 1012.3
20260503013403 72 321 1.0 3.0 0.00 0.00 0.00 49 1012.3
20260503012402 73 340 1.0 3.0 0.00 0.00 0.00 49 1012.3
20260503011403 74 359 2.0 8.0 0.00 0.00 0.00 50 1012.3
20260503010403 75 219 1.0 6.0 0.00 0.00 0.00 50 1012.3
20260503005403 77 307 1.0 7.0 0.00 0.00 0.00 48 1012.4
20260503004902 77 321 0.0 2.0 0.00 0.00 0.00 50 1012.4
20260503004403 77 321 1.0 2.0 0.00 0.00 0.00 49 1012.4
20260503003903 78 0 0.0 2.0 0.00 0.00 0.00 49 1012.5
20260503003403 78 303 0.0 1.0 0.00 0.00 0.00 50 1012.5
20260503002903 78 264 1.0 3.0 0.00 0.00 0.00 51 1012.4
20260503002403 78 358 0.0 2.0 0.00 0.00 0.00 50 1012.4
20260503001902 78 303 0.0 2.0 0.00 0.00 0.00 50 1012.5
20260503001403 78 306 0.0 2.0 0.00 0.00 0.00 51 1012.5
20260503000903 79 321 0.0 1.0 0.00 0.00 0.00 50 1012.5
20260503000402 79 12 0.0 5.0 0.00 0.00 0.00 54 1012.5
20260502235903 79 262 0.0 1.0 0.00 0.00 0.00 53 1012.6
20260502234903 78 145 0.0 2.0 0.00 0.00 0.00 54 1012.7
20260502234403 78 246 0.0 2.0 0.00 0.00 0.00 52 1012.7
20260502233904 78 31 0.0 2.0 0.00 0.00 0.00 52 1012.8
20260502233403 78 299 1.0 2.0 0.00 0.00 0.00 53 1012.8
20260502232402 77 25 1.0 2.0 0.00 0.00 0.00 53 1013.0
20260502231904 77 342 1.0 2.0 0.00 0.00 0.00 55 1012.9
20260502231403 77 21 1.0 3.0 0.00 0.00 0.00 54 1013.0
20260502230903 77 118 1.0 3.0 0.00 0.00 0.00 56 1013.1
20260502230404 77 24 2.0 3.0 0.00 0.00 0.00 55 1013.2
20260502225403 78 309 1.0 1.0 0.00 0.00 0.00 54 1013.3
20260502224403 77 239 0.0 2.0 0.00 0.00 0.00 58 1013.5
20260502223903 76 250 1.0 3.0 0.00 0.00 0.00 57 1013.6
20260502223404 76 238 1.0 3.0 0.00 0.00 0.00 57 1013.7
20260502222903 76 266 1.0 2.0 0.00 0.00 0.00 57 1013.7
20260502221903 75 231 1.0 3.0 0.00 0.00 0.00 57 1013.8
20260502221403 75 243 2.0 8.0 0.00 0.00 0.00 59 1013.8
20260502220903 76 226 1.0 2.0 0.00 0.00 0.00 57 1013.9
20260502220403 75 300 0.0 3.0 0.00 0.00 0.00 59 1014.0
20260502215903 75 115 2.0 3.0 0.00 0.00 0.00 55 1014.1
20260502215403 76 294 1.0 3.0 0.00 0.00 0.00 58 1014.1
20260502214903 75 278 0.0 2.0 0.00 0.00 0.00 59 1014.1
20260502214404 75 232 1.0 3.0 0.00 0.00 0.00 61 1014.2
20260502213903 75 152 2.0 5.0 0.00 0.00 0.00 61 1014.3
20260502213403 74 246 1.0 3.0 0.00 0.00 0.00 60 1014.3
20260502212903 74 266 1.0 5.0 0.00 0.00 0.00 61 1014.4
20260502212403 74 164 2.0 5.0 0.00 0.00 0.00 60 1014.5
20260502211903 75 280 1.0 2.0 0.00 0.00 0.00 59 1014.5
20260502211403 74 291 1.0 3.0 0.00 0.00 0.00 61 1014.5
20260502210903 74 290 1.0 2.0 0.00 0.00 0.00 61 1014.6
20260502210404 73 248 0.0 3.0 0.00 0.00 0.00 60 1014.6
20260502205404 74 89 2.0 3.0 0.00 0.00 0.00 60 1014.7
20260502204903 74 281 1.0 3.0 0.00 0.00 0.00 61 1014.8
20260502204403 74 271 1.0 3.0 0.00 0.00 0.00 61 1014.7
20260502203403 73 232 1.0 5.0 0.00 0.00 0.00 64 1014.7
20260502202404 72 142 2.0 6.0 0.00 0.00 0.00 64 1014.9
20260502201903 73 220 1.0 5.0 0.00 0.00 0.00 62 1015.0
20260502201403 73 252 1.0 3.0 0.00 0.00 0.00 62 1015.1
20260502200403 73 245 1.0 2.0 0.00 0.00 0.00 62 1015.2
20260502195905 72 269 1.0 2.0 0.00 0.00 0.00 64 1015.2
20260502194903 72 50 1.0 2.0 0.00 0.00 0.00 63 1015.3
20260502194403 71 306 1.0 3.0 0.00 0.00 0.00 64 1015.3
20260502193903 71 21 0.0 2.0 0.00 0.00 0.00 65 1015.3
20260502193403 71 100 1.0 2.0 0.00 0.00 0.00 64 1015.3
20260502192904 71 315 1.0 3.0 0.00 0.00 0.00 64 1015.4
20260502192403 71 283 1.0 1.0 0.00 0.00 0.00 65 1015.4
20260502191903 71 35 1.0 3.0 0.00 0.00 0.00 65 1015.4
20260502191403 70 328 1.0 2.0 0.00 0.00 0.00 66 1015.5
20260502190904 70 299 1.0 2.0 0.00 0.00 0.00 68 1015.5
20260502190403 69 331 0.0 2.0 0.00 0.00 0.00 69 1015.7
20260502185404 67 218 0.0 2.0 0.00 0.00 0.00 70 1015.8